• In Latvia
  • List of Countries
  • For 7 days
  • Water Temperature
  • Satellite Maps
  • Weather Map
  • Weather Widgets
  • user-avatar
    Login

    Hourly Weather Kolynevo

    Today, 20 September, Thursday

    Time Temperature Precipitation Wind Pressure Humidity
    00:00 +13°C° 0 mm 3 mps 741 mmHg 93%
    01:00 +13°C° 0 mm 3 mps 741 mmHg 94%
    02:00 +13°C° 0 mm 3 mps 741 mmHg 96%
    03:00 +13°C° 0 mm 3 mps 741 mmHg 97%
    04:00 +13°C° 0 mm 3 mps 741 mmHg 97%
    05:00 +13°C° 0 mm 3 mps 741 mmHg 97%
    06:00 +13°C° 0 mm 4 mps 742 mmHg 94%
    07:00 +14°C° 0 mm 4 mps 742 mmHg 91%
    08:00 +15°C° 0 mm 4 mps 743 mmHg 87%
    09:00 +15°C° 0 mm 4 mps 743 mmHg 85%
    10:00 +15°C° 0 mm 4 mps 743 mmHg 82%
    11:00 +17°C° 0 mm 4 mps 744 mmHg 79%
    12:00 +17°C° 0 mm 4 mps 744 mmHg 75%
    13:00 +18°C° 0 mm 4 mps 744 mmHg 71%
    14:00 +19°C° 0 mm 4 mps 744 mmHg 68%
    15:00 +18°C° 0 mm 3 mps 744 mmHg 72%
    16:00 +18°C° 0 mm 2 mps 744 mmHg 75%
    17:00 +17°C° 0 mm 2 mps 745 mmHg 79%
    18:00 +16°C° 0 mm 2 mps 745 mmHg 83%
    19:00 +16°C° 0 mm 2 mps 745 mmHg 88%
    20:00 +15°C° 0 mm 2 mps 745 mmHg 92%
    21:00 +15°C° 0 mm 2 mps 745 mmHg 93%
    22:00 +14°C° 0 mm 2 mps 745 mmHg 93%
    23:00 +14°C° 0 mm 2 mps 745 mmHg 94%

    Tomorrow, 21 September, Friday

    Time Temperature Precipitation Wind Pressure Humidity
    00:00 +14°C° 0 mm 2 mps 746 mmHg 95%
    01:00 +14°C° 0 mm 2 mps 746 mmHg 95%
    02:00 +14°C° 0 mm 2 mps 746 mmHg 95%
    03:00 +14°C° 0 mm 2 mps 746 mmHg 96%
    04:00 +13°C° 0 mm 2 mps 746 mmHg 96%
    05:00 +13°C° 0 mm 2 mps 746 mmHg 96%
    06:00 +14°C° 0 mm 2 mps 747 mmHg 92%
    07:00 +16°C° 0 mm 3 mps 747 mmHg 87%
    08:00 +17°C° 0 mm 3 mps 747 mmHg 82%
    09:00 +19°C° 0 mm 3 mps 747 mmHg 76%
    10:00 +20°C° 0 mm 3 mps 747 mmHg 70%
    11:00 +22°C° 0 mm 3 mps 747 mmHg 65%
    12:00 +22°C° 0 mm 3 mps 747 mmHg 62%
    13:00 +23°C° 0 mm 4 mps 747 mmHg 59%
    14:00 +23°C° 0 mm 4 mps 747 mmHg 57%
    15:00 +22°C° 0 mm 3 mps 747 mmHg 63%
    16:00 +21°C° 0 mm 3 mps 747 mmHg 69%
    17:00 +20°C° 0 mm 2 mps 747 mmHg 75%
    18:00 +19°C° 0 mm 2 mps 747 mmHg 79%
    19:00 +19°C° 0 mm 3 mps 747 mmHg 84%
    20:00 +18°C° 0 mm 3 mps 747 mmHg 88%
    21:00 +18°C° 0 mm 3 mps 746 mmHg 89%
    22:00 +18°C° 0 mm 3 mps 746 mmHg 90%
    23:00 +17°C° 0 mm 3 mps 746 mmHg 91%

    Day after tomorrow, 22 September, Saturday

    Time Temperature Precipitation Wind Pressure Humidity
    00:00 +17°C° 0 mm 3 mps 746 mmHg 92%
    01:00 +17°C° 0 mm 3 mps 746 mmHg 93%
    02:00 +17°C° 0 mm 3 mps 745 mmHg 93%
    03:00 +16°C° 0 mm 3 mps 745 mmHg 94%
    04:00 +15°C° 0 mm 4 mps 745 mmHg 95%
    05:00 +15°C° 0 mm 4 mps 745 mmHg 95%
    06:00 +17°C° 0 mm 4 mps 744 mmHg 90%
    07:00 +17°C° 0 mm 5 mps 744 mmHg 84%
    08:00 +19°C° 0 mm 5 mps 743 mmHg 78%
    09:00 +20°C° 0 mm 6 mps 743 mmHg 71%
    10:00 +22°C° 0 mm 6 mps 742 mmHg 64%
    11:00 +23°C° 0 mm 7 mps 742 mmHg 57%
    12:00 +24°C° 0 mm 7 mps 742 mmHg 54%
    13:00 +24°C° 0 mm 7 mps 741 mmHg 52%
    14:00 +24°C° 0 mm 7 mps 741 mmHg 50%
    15:00 +23°C° 0.2 mm 6 mps 741 mmHg 56%
    16:00 +21°C° 0.2 mm 5 mps 741 mmHg 62%
    17:00 +20°C° 0.2 mm 5 mps 741 mmHg 69%
    18:00 +18°C° 0.2 mm 4 mps 741 mmHg 76%
    19:00 +16°C° 0.2 mm 3 mps 741 mmHg 83%
    20:00 +13°C° 0.2 mm 3 mps 741 mmHg 90%
    21:00 +12°C° 0 mm 3 mps 741 mmHg 89%
    22:00 +13°C° 0 mm 2 mps 741 mmHg 88%
    23:00 +12°C° 0 mm 2 mps 741 mmHg 87%

    23 September, Sunday

    Time Temperature Precipitation Wind Pressure Humidity
    00:00 +12°C° 0.1 mm 2 mps 741 mmHg 87%
    01:00 +12°C° 0.1 mm 2 mps 741 mmHg 86%
    02:00 +12°C° 0.1 mm 2 mps 741 mmHg 86%
    03:00 +10°C° 0.3 mm 2 mps 741 mmHg 88%
    04:00 +10°C° 0.3 mm 2 mps 741 mmHg 89%
    05:00 +10°C° 0.3 mm 2 mps 740 mmHg 91%
    06:00 +9°C° 0.8 mm 2 mps 740 mmHg 91%
    07:00 +9°C° 0.8 mm 2 mps 740 mmHg 92%
    08:00 +9°C° 0.8 mm 2 mps 740 mmHg 93%
    09:00 +10°C° 0.7 mm 2 mps 740 mmHg 91%
    10:00 +10°C° 0.7 mm 2 mps 739 mmHg 90%
    11:00 +10°C° 0.7 mm 2 mps 739 mmHg 88%
    12:00 +11°C° 0.2 mm 3 mps 739 mmHg 85%
    13:00 +11°C° 0.2 mm 3 mps 739 mmHg 83%
    14:00 +11°C° 0.2 mm 3 mps 739 mmHg 80%
    15:00 +11°C° 0 mm 3 mps 739 mmHg 82%
    16:00 +12°C° 0 mm 2 mps 738 mmHg 83%
    17:00 +10°C° 0 mm 2 mps 738 mmHg 85%
    18:00 +9°C° 0.1 mm 2 mps 738 mmHg 87%
    19:00 +9°C° 0.1 mm 2 mps 738 mmHg 89%
    20:00 +8°C° 0.1 mm 3 mps 738 mmHg 92%
    21:00 +8°C° 0 mm 3 mps 738 mmHg 92%
    22:00 +7°C° 0 mm 3 mps 738 mmHg 91%
    23:00 +7°C° 0 mm 3 mps 738 mmHg 91%

    24 September, Monday

    Time Temperature Precipitation Wind Pressure Humidity
    00:00 +7°C° 0 mm 3 mps 738 mmHg 92%
    01:00 +7°C° 0 mm 3 mps 738 mmHg 93%
    02:00 +5°C° 0 mm 3 mps 738 mmHg 94%
    03:00 +5°C° 0 mm 3 mps 738 mmHg 94%
    04:00 +5°C° 0 mm 3 mps 738 mmHg 95%
    05:00 +5°C° 0 mm 3 mps 738 mmHg 96%
    06:00 +5°C° 0 mm 3 mps 738 mmHg 92%
    07:00 +7°C° 0 mm 3 mps 738 mmHg 89%
    08:00 +7°C° 0 mm 4 mps 738 mmHg 85%
    09:00 +9°C° 0 mm 3 mps 738 mmHg 79%
    10:00 +10°C° 0 mm 3 mps 738 mmHg 73%
    11:00 +11°C° 0 mm 3 mps 738 mmHg 67%
    12:00 +11°C° 0.1 mm 4 mps 737 mmHg 67%
    13:00 +12°C° 0.1 mm 4 mps 737 mmHg 67%
    14:00 +12°C° 0.1 mm 4 mps 736 mmHg 67%
    15:00 +11°C° 0.7 mm 4 mps 735 mmHg 74%
    16:00 +10°C° 0.7 mm 4 mps 734 mmHg 81%
    17:00 +8°C° 0.7 mm 4 mps 734 mmHg 88%
    18:00 +7°C° 1.7 mm 5 mps 732 mmHg 89%
    19:00 +7°C° 1.7 mm 5 mps 731 mmHg 90%
    20:00 +7°C° 1.7 mm 6 mps 730 mmHg 91%
    21:00 +7°C° 2.2 mm 6 mps 729 mmHg 92%
    22:00 +7°C° 2.2 mm 6 mps 727 mmHg 92%
    23:00 +7°C° 2.2 mm 6 mps 726 mmHg 93%

    25 September, Tuesday

    Time Temperature Precipitation Wind Pressure Humidity
    00:00 +7°C° 2.2 mm 5 mps 725 mmHg 93%
    01:00 +7°C° 2.2 mm 4 mps 724 mmHg 93%
    02:00 +8°C° 2.2 mm 4 mps 723 mmHg 93%
    03:00 +8°C° 0.3 mm 3 mps 722 mmHg 93%
    04:00 +8°C° 0.3 mm 3 mps 722 mmHg 94%
    05:00 +8°C° 0.3 mm 2 mps 722 mmHg 94%
    06:00 +8°C° 0.4 mm 2 mps 722 mmHg 93%
    07:00 +9°C° 0.4 mm 1 mps 722 mmHg 93%
    08:00 +9°C° 0.4 mm 1 mps 722 mmHg 92%
    09:00 +8°C° 0.6 mm 2 mps 723 mmHg 91%
    10:00 +8°C° 0.6 mm 3 mps 723 mmHg 90%
    11:00 +7°C° 0.6 mm 4 mps 724 mmHg 89%
    12:00 +7°C° 0.7 mm 6 mps 725 mmHg 88%
    13:00 +5°C° 0.7 mm 7 mps 726 mmHg 88%
    14:00 +5°C° 0.7 mm 8 mps 727 mmHg 87%
    15:00 +5°C° 0.7 mm 8 mps 728 mmHg 86%
    16:00 +4°C° 0.7 mm 8 mps 730 mmHg 85%
    17:00 +3°C° 0.7 mm 9 mps 731 mmHg 85%
    18:00 +3°C° 0.3 mm 9 mps 732 mmHg 84%
    19:00 +2°C° 0.3 mm 8 mps 733 mmHg 84%
    20:00 +2°C° 0.3 mm 8 mps 734 mmHg 83%
    21:00 +2°C° 0.1 mm 8 mps 735 mmHg 81%
    22:00 +2°C° 0.1 mm 7 mps 737 mmHg 80%
    23:00 +2°C° 0.1 mm 7 mps 738 mmHg 79%
    Show more